Time,TemperatureF,DewpointF,PressureIn,WindDirection,WindDirectionDegrees,WindSpeedMPH,WindSpeedGustMPH,Humidity,HourlyPrecipIn,Conditions,Clouds,dailyrainin,SoftwareType,DateUTC
2013-03-16 00:04:00,66.5,61.9,29.96,NNW,348,0.0,1.0,85,0.00,,---,0.00,VWS V14.00,2013-03-16 10:04:00,
2013-03-16 00:09:00,66.5,61.9,29.96,NNW,348,0.0,2.0,85,0.00,,---,0.00,VWS V14.00,2013-03-16 10:09:00,
2013-03-16 00:14:00,66.4,61.8,29.96,NNW,348,0.0,2.0,85,0.00,,---,0.00,VWS V14.00,2013-03-16 10:14:00,
2013-03-16 00:19:00,66.4,61.8,29.96,NNW,348,0.0,2.0,85,0.00,,---,0.00,VWS V14.00,2013-03-16 10:19:00,
2013-03-16 00:24:00,66.3,61.7,29.96,NNW,348,0.0,2.0,85,0.00,,---,0.00,VWS V14.00,2013-03-16 10:24:00,
2013-03-16 00:29:00,66.3,62.0,29.96,NNW,348,0.0,2.0,86,0.00,,---,0.00,VWS V14.00,2013-03-16 10:29:00,
2013-03-16 00:34:00,66.3,62.0,29.96,NNW,348,0.0,0.0,86,0.00,,---,0.00,VWS V14.00,2013-03-16 10:34:00,
2013-03-16 00:39:00,66.3,62.0,29.96,NNW,348,0.0,0.0,86,0.00,,---,0.00,VWS V14.00,2013-03-16 10:39:00,
2013-03-16 00:44:00,66.2,61.9,29.95,NNW,348,0.0,0.0,86,0.00,,---,0.00,VWS V14.00,2013-03-16 10:44:00,
2013-03-16 00:49:00,66.2,61.9,29.95,NNW,348,0.0,0.0,86,0.00,,---,0.00,VWS V14.00,2013-03-16 10:49:00,
2013-03-16 00:54:00,66.2,61.9,29.95,NNW,348,0.0,0.0,86,0.00,,---,0.00,VWS V14.00,2013-03-16 10:54:00,
2013-03-16 00:59:00,66.3,62.0,29.95,NNW,348,0.0,0.0,86,0.00,,---,0.00,VWS V14.00,2013-03-16 10:59:00,
2013-03-16 01:04:00,66.3,62.0,29.95,NNW,348,0.0,0.0,86,0.00,,---,0.00,VWS V14.00,2013-03-16 11:04:00,
2013-03-16 01:09:00,66.2,61.9,29.95,NNW,348,0.0,0.0,86,0.00,,---,0.00,VWS V14.00,2013-03-16 11:09:00,
2013-03-16 01:14:00,66.2,61.9,29.94,NNW,348,0.0,0.0,86,0.00,,---,0.00,VWS V14.00,2013-03-16 11:14:00,
2013-03-16 01:19:00,66.1,61.8,29.94,NNW,348,0.0,1.0,86,0.00,,---,0.00,VWS V14.00,2013-03-16 11:19:00,
2013-03-16 01:24:00,66.0,61.7,29.94,NNW,348,0.0,1.0,86,0.00,,---,0.00,VWS V14.00,2013-03-16 11:24:00,
2013-03-16 01:29:00,66.0,61.7,29.93,NNW,348,0.0,1.0,86,0.00,,---,0.00,VWS V14.00,2013-03-16 11:29:00,
2013-03-16 01:34:00,65.9,61.6,29.94,NNW,348,0.0,0.0,86,0.00,,---,0.00,VWS V14.00,2013-03-16 11:34:00,
2013-03-16 01:39:00,65.9,61.9,29.93,NNW,348,0.0,0.0,87,0.00,,---,0.00,VWS V14.00,2013-03-16 11:39:00,
2013-03-16 01:44:00,65.8,61.8,29.93,NNW,348,0.0,0.0,87,0.00,,---,0.00,VWS V14.00,2013-03-16 11:44:00,
2013-03-16 01:49:00,65.8,61.8,29.93,NNW,348,0.0,0.0,87,0.00,,---,0.00,VWS V14.00,2013-03-16 11:49:00,
2013-03-16 01:54:00,65.7,61.7,29.93,NNW,348,0.0,0.0,87,0.00,,---,0.00,VWS V14.00,2013-03-16 11:54:00,
2013-03-16 01:59:00,65.7,61.7,29.93,NNW,348,0.0,0.0,87,0.00,,---,0.00,VWS V14.00,2013-03-16 11:59:00,
2013-03-16 02:04:00,65.7,61.7,29.93,NNW,348,0.0,0.0,87,0.00,,---,0.00,VWS V14.00,2013-03-16 12:04:00,
2013-03-16 02:09:00,65.6,61.6,29.93,NNW,348,0.0,0.0,87,0.00,,---,0.00,VWS V14.00,2013-03-16 12:09:00,
2013-03-16 02:14:00,65.6,61.6,29.93,NNW,348,0.0,0.0,87,0.00,,---,0.00,VWS V14.00,2013-03-16 12:14:00,
2013-03-16 02:19:00,65.5,61.5,29.93,NNW,348,0.0,0.0,87,0.00,,---,0.00,VWS V14.00,2013-03-16 12:19:00,
2013-03-16 02:24:00,65.4,61.4,29.93,NNW,348,0.0,0.0,87,0.00,,---,0.00,VWS V14.00,2013-03-16 12:24:00,
2013-03-16 02:29:00,65.3,61.3,29.93,NNW,348,0.0,0.0,87,0.00,,---,0.00,VWS V14.00,2013-03-16 12:29:00,
2013-03-16 02:34:00,65.2,61.2,29.93,NNW,348,0.0,0.0,87,0.00,,---,0.00,VWS V14.00,2013-03-16 12:34:00,
2013-03-16 02:39:00,65.2,61.2,29.92,NNW,348,0.0,0.0,87,0.00,,---,0.00,VWS V14.00,2013-03-16 12:39:00,
2013-03-16 02:44:00,65.1,61.1,29.93,NNW,348,0.0,0.0,87,0.00,,---,0.00,VWS V14.00,2013-03-16 12:44:00,
2013-03-16 02:49:00,65.0,61.0,29.93,NNW,348,0.0,0.0,87,0.00,,---,0.00,VWS V14.00,2013-03-16 12:49:00,
2013-03-16 02:54:00,65.0,61.0,29.93,NNW,348,0.0,0.0,87,0.00,,---,0.00,VWS V14.00,2013-03-16 12:54:00,
2013-03-16 02:59:00,64.9,60.9,29.92,NNW,348,0.0,0.0,87,0.00,,---,0.00,VWS V14.00,2013-03-16 12:59:00,
2013-03-16 03:04:00,64.8,60.8,29.92,NNW,348,0.0,0.0,87,0.00,,---,0.00,VWS V14.00,2013-03-16 13:04:00,
2013-03-16 03:09:00,64.8,60.8,29.92,NNW,348,0.0,0.0,87,0.00,,---,0.00,VWS V14.00,2013-03-16 13:09:00,
2013-03-16 03:14:00,64.7,60.8,29.93,NNW,348,0.0,0.0,87,0.00,,---,0.00,VWS V14.00,2013-03-16 13:14:00,
2013-03-16 03:19:00,64.7,60.8,29.92,NNW,348,0.0,1.0,87,0.00,,---,0.00,VWS V14.00,2013-03-16 13:19:00,
2013-03-16 03:24:00,64.8,60.8,29.92,NNW,348,0.0,1.0,87,0.00,,---,0.00,VWS V14.00,2013-03-16 13:24:00,
2013-03-16 03:29:00,64.8,60.5,29.92,NNW,348,0.0,1.0,86,0.00,,---,0.00,VWS V14.00,2013-03-16 13:29:00,
2013-03-16 03:34:00,64.9,60.9,29.92,NNW,348,0.0,0.0,87,0.00,,---,0.00,VWS V14.00,2013-03-16 13:34:00,
2013-03-16 03:39:00,65.0,61.0,29.92,NNW,348,0.0,0.0,87,0.00,,---,0.00,VWS V14.00,2013-03-16 13:39:00,
2013-03-16 03:44:00,65.1,61.1,29.92,NNW,348,0.0,0.0,87,0.00,,---,0.00,VWS V14.00,2013-03-16 13:44:00,
2013-03-16 03:49:00,65.1,60.8,29.92,NNW,348,0.0,0.0,86,0.00,,---,0.00,VWS V14.00,2013-03-16 13:49:00,
2013-03-16 03:54:00,65.0,60.7,29.92,NNW,348,0.0,0.0,86,0.00,,---,0.00,VWS V14.00,2013-03-16 13:54:00,
2013-03-16 03:59:00,65.0,60.4,29.91,NNW,348,0.0,0.0,85,0.00,,---,0.00,VWS V14.00,2013-03-16 13:59:00,
2013-03-16 04:04:00,64.9,60.3,29.92,NNW,348,0.0,0.0,85,0.00,,---,0.00,VWS V14.00,2013-03-16 14:04:00,
2013-03-16 04:09:00,64.9,60.3,29.92,NNW,348,0.0,0.0,85,0.00,,---,0.00,VWS V14.00,2013-03-16 14:09:00,
2013-03-16 04:14:00,64.9,60.3,29.92,NNW,348,0.0,0.0,85,0.00,,---,0.00,VWS V14.00,2013-03-16 14:14:00,
2013-03-16 04:19:00,64.8,59.9,29.92,NNW,348,0.0,0.0,84,0.00,,---,0.00,VWS V14.00,2013-03-16 14:19:00,
2013-03-16 04:24:00,64.8,59.5,29.92,NNW,348,0.0,2.0,83,0.00,,---,0.00,VWS V14.00,2013-03-16 14:24:00,
2013-03-16 04:29:00,64.8,59.5,29.92,NNW,348,0.0,2.0,83,0.00,,---,0.00,VWS V14.00,2013-03-16 14:29:00,
2013-03-16 04:34:00,64.9,59.6,29.92,NNW,348,0.0,2.0,83,0.00,,---,0.00,VWS V14.00,2013-03-16 14:34:00,
2013-03-16 04:39:00,64.9,59.3,29.92,NNW,348,0.0,2.0,82,0.00,,---,0.00,VWS V14.00,2013-03-16 14:39:00,
2013-03-16 04:44:00,64.9,59.3,29.92,NNW,348,1.0,2.0,82,0.00,,---,0.00,VWS V14.00,2013-03-16 14:44:00,
2013-03-16 04:49:00,65.0,59.0,29.91,NNW,348,0.0,2.0,81,0.00,,---,0.00,VWS V14.00,2013-03-16 14:49:00,
2013-03-16 04:54:00,65.1,59.1,29.91,NNW,348,0.0,2.0,81,0.00,,---,0.00,VWS V14.00,2013-03-16 14:54:00,
2013-03-16 04:59:00,65.1,58.8,29.92,NNW,348,0.0,2.0,80,0.00,,---,0.00,VWS V14.00,2013-03-16 14:59:00,
2013-03-16 05:04:00,65.1,58.8,29.92,NNW,348,0.0,2.0,80,0.00,,---,0.00,VWS V14.00,2013-03-16 15:04:00,
2013-03-16 05:09:00,65.2,58.9,29.92,NNW,348,1.0,5.0,80,0.00,,---,0.00,VWS V14.00,2013-03-16 15:09:00,
2013-03-16 05:14:00,65.3,59.0,29.92,NNW,348,1.0,5.0,80,0.00,,---,0.00,VWS V14.00,2013-03-16 15:14:00,
2013-03-16 05:19:00,65.4,58.7,29.92,NNW,348,0.0,5.0,79,0.00,,---,0.00,VWS V14.00,2013-03-16 15:19:00,
2013-03-16 05:24:00,65.6,58.6,29.92,NNW,348,2.0,6.0,78,0.00,,---,0.00,VWS V14.00,2013-03-16 15:24:00,
2013-03-16 05:29:00,66.0,58.6,29.93,NNW,347,2.0,6.0,77,0.00,,---,0.00,VWS V14.00,2013-03-16 15:29:00,
2013-03-16 05:34:00,66.3,58.9,29.93,NNW,347,0.0,2.0,77,0.00,,---,0.00,VWS V14.00,2013-03-16 15:34:00,
2013-03-16 05:39:00,66.4,58.6,29.93,NNW,347,1.0,4.0,76,0.00,,---,0.00,VWS V14.00,2013-03-16 15:39:00,
2013-03-16 05:44:00,66.5,58.7,29.94,NNW,347,0.0,6.0,76,0.00,,---,0.00,VWS V14.00,2013-03-16 15:44:00,
2013-03-16 05:49:00,66.6,58.8,29.94,NNW,347,1.0,6.0,76,0.00,,---,0.00,VWS V14.00,2013-03-16 15:49:00,
2013-03-16 05:54:00,66.6,58.4,29.94,NNW,347,0.0,6.0,75,0.00,,---,0.00,VWS V14.00,2013-03-16 15:54:00,
2013-03-16 05:59:00,66.7,58.5,29.95,NNW,347,0.0,6.0,75,0.00,,---,0.00,VWS V14.00,2013-03-16 15:59:00,
2013-03-16 06:04:00,66.6,58.1,29.95,NNW,347,0.0,5.0,74,0.00,,---,0.00,VWS V14.00,2013-03-16 16:04:00,
2013-03-16 06:09:00,66.5,58.0,29.95,NNW,346,5.0,5.0,74,0.00,,---,0.00,VWS V14.00,2013-03-16 16:09:00,
2013-03-16 06:14:00,66.5,58.0,29.95,NNW,346,0.0,5.0,74,0.00,,---,0.00,VWS V14.00,2013-03-16 16:14:00,
2013-03-16 06:19:00,66.6,58.1,29.95,NNW,346,0.0,5.0,74,0.00,,---,0.00,VWS V14.00,2013-03-16 16:19:00,
2013-03-16 06:24:00,66.5,58.0,29.95,NNW,346,0.0,5.0,74,0.00,,---,0.00,VWS V14.00,2013-03-16 16:24:00,
2013-03-16 06:29:00,66.4,57.9,29.95,NNW,346,0.0,5.0,74,0.00,,---,0.00,VWS V14.00,2013-03-16 16:29:00,
2013-03-16 06:34:00,66.3,58.2,29.96,NNW,346,0.0,1.0,75,0.00,,---,0.00,VWS V14.00,2013-03-16 16:34:00,
2013-03-16 06:39:00,66.3,58.2,29.96,NNW,346,0.0,5.0,75,0.00,,---,0.00,VWS V14.00,2013-03-16 16:39:00,
2013-03-16 06:44:00,66.2,58.0,29.96,NNW,346,0.0,5.0,75,0.00,,---,0.00,VWS V14.00,2013-03-16 16:44:00,
2013-03-16 06:49:00,66.0,57.9,29.97,NNW,346,0.0,5.0,75,0.00,,---,0.00,VWS V14.00,2013-03-16 16:49:00,
2013-03-16 06:54:00,66.0,57.5,29.96,NNW,346,2.0,5.0,74,0.00,,---,0.00,VWS V14.00,2013-03-16 16:54:00,
2013-03-16 06:59:00,66.0,57.5,29.97,NNW,346,0.0,5.0,74,0.00,,---,0.00,VWS V14.00,2013-03-16 16:59:00,
2013-03-16 07:04:00,66.0,57.1,29.97,NNW,346,0.0,5.0,73,0.00,,---,0.00,VWS V14.00,2013-03-16 17:04:00,
2013-03-16 07:09:00,66.1,57.2,29.97,NNW,345,0.0,5.0,73,0.00,,---,0.00,VWS V14.00,2013-03-16 17:09:00,
2013-03-16 07:14:00,66.3,57.0,29.97,NNW,345,2.0,5.0,72,0.00,,---,0.00,VWS V14.00,2013-03-16 17:14:00,
2013-03-16 07:19:00,66.3,57.4,29.97,NNW,345,2.0,5.0,73,0.00,,---,0.00,VWS V14.00,2013-03-16 17:19:00,
2013-03-16 07:24:00,66.4,57.1,29.97,NNW,345,4.0,5.0,72,0.00,,---,0.00,VWS V14.00,2013-03-16 17:24:00,
2013-03-16 07:29:00,66.6,57.3,29.97,NNW,345,4.0,7.0,72,0.00,,---,0.00,VWS V14.00,2013-03-16 17:29:00,
2013-03-16 07:34:00,67.0,57.3,29.97,NNW,337,0.0,4.0,71,0.00,,---,0.00,VWS V14.00,2013-03-16 17:34:00,
2013-03-16 07:39:00,67.3,57.2,29.97,NNW,333,7.0,7.0,70,0.00,,---,0.00,VWS V14.00,2013-03-16 17:39:00,
2013-03-16 07:44:00,67.5,57.4,29.97,North,360,1.0,7.0,70,0.00,,---,0.00,VWS V14.00,2013-03-16 17:44:00,
2013-03-16 07:49:00,67.7,57.2,29.98,North,355,5.0,7.0,69,0.00,,---,0.00,VWS V14.00,2013-03-16 17:49:00,
2013-03-16 07:54:00,67.8,56.9,29.98,NNW,334,8.0,9.0,68,0.00,,---,0.00,VWS V14.00,2013-03-16 17:54:00,
2013-03-16 07:59:00,67.9,57.0,29.98,NW,308,1.0,9.0,68,0.00,,---,0.00,VWS V14.00,2013-03-16 17:59:00,
2013-03-16 08:04:00,68.0,57.1,29.98,West,264,0.0,3.0,68,0.00,,---,0.00,VWS V14.00,2013-03-16 18:04:00,
2013-03-16 08:09:00,68.1,57.2,29.98,West,264,3.0,4.0,68,0.00,,---,0.00,VWS V14.00,2013-03-16 18:09:00,
2013-03-16 08:14:00,68.3,56.9,29.98,West,266,0.0,5.0,67,0.00,,---,0.00,VWS V14.00,2013-03-16 18:14:00,
2013-03-16 08:19:00,68.4,57.4,29.99,West,266,1.0,5.0,68,0.00,,---,0.00,VWS V14.00,2013-03-16 18:19:00,
2013-03-16 08:24:00,68.5,57.1,29.99,West,266,3.0,5.0,67,0.00,,---,0.00,VWS V14.00,2013-03-16 18:24:00,
2013-03-16 08:29:00,68.8,57.4,29.99,West,266,2.0,5.0,67,0.00,,---,0.00,VWS V14.00,2013-03-16 18:29:00,
2013-03-16 08:34:00,68.9,57.1,29.99,West,267,2.0,4.0,66,0.00,,---,0.00,VWS V14.00,2013-03-16 18:34:00,
2013-03-16 08:39:00,69.2,57.0,29.99,NW,308,4.0,9.0,65,0.00,,---,0.00,VWS V14.00,2013-03-16 18:39:00,
2013-03-16 08:44:00,69.4,57.1,29.99,NW,307,0.0,9.0,65,0.00,,---,0.00,VWS V14.00,2013-03-16 18:44:00,
2013-03-16 08:49:00,69.9,57.2,29.99,NW,308,1.0,9.0,64,0.00,,---,0.00,VWS V14.00,2013-03-16 18:49:00,
2013-03-16 08:54:00,70.4,56.3,29.99,NW,310,2.0,9.0,61,0.00,,---,0.00,VWS V14.00,2013-03-16 18:54:00,
2013-03-16 08:59:00,70.7,56.2,29.99,WNW,283,7.0,9.0,60,0.00,,---,0.00,VWS V14.00,2013-03-16 18:59:00,
2013-03-16 09:04:00,70.7,55.2,29.99,WNW,288,4.0,8.0,58,0.00,,---,0.00,VWS V14.00,2013-03-16 19:04:00,
2013-03-16 09:09:00,70.6,55.6,29.99,NW,317,4.0,8.0,59,0.00,,---,0.00,VWS V14.00,2013-03-16 19:09:00,
2013-03-16 09:14:00,70.4,55.4,29.99,NW,309,2.0,8.0,59,0.00,,---,0.00,VWS V14.00,2013-03-16 19:14:00,
2013-03-16 09:19:00,70.4,55.4,30.00,NW,309,2.0,8.0,59,0.00,,---,0.00,VWS V14.00,2013-03-16 19:19:00,
2013-03-16 09:24:00,70.9,55.9,30.00,NW,312,0.0,8.0,59,0.00,,---,0.00,VWS V14.00,2013-03-16 19:24:00,
2013-03-16 09:29:00,71.3,55.8,30.00,NW,310,2.0,8.0,58,0.00,,---,0.00,VWS V14.00,2013-03-16 19:29:00,
2013-03-16 09:34:00,71.5,55.0,30.00,NW,306,6.0,6.0,56,0.00,,---,0.00,VWS V14.00,2013-03-16 19:34:00,
2013-03-16 09:39:00,71.3,55.3,30.00,WNW,303,2.0,6.0,57,0.00,,---,0.00,VWS V14.00,2013-03-16 19:39:00,
2013-03-16 09:44:00,71.3,55.8,30.00,West,275,6.0,11.0,58,0.00,,---,0.00,VWS V14.00,2013-03-16 19:44:00,
2013-03-16 09:49:00,71.6,55.1,30.00,West,275,4.0,11.0,56,0.00,,---,0.00,VWS V14.00,2013-03-16 19:49:00,
2013-03-16 09:54:00,71.7,54.7,30.00,West,274,1.0,11.0,55,0.00,,---,0.00,VWS V14.00,2013-03-16 19:54:00,
2013-03-16 09:59:00,71.7,55.2,30.00,West,275,0.0,11.0,56,0.00,,---,0.00,VWS V14.00,2013-03-16 19:59:00,
2013-03-16 10:04:00,71.7,55.2,30.00,West,267,1.0,5.0,56,0.00,,---,0.00,VWS V14.00,2013-03-16 20:04:00,
2013-03-16 10:09:00,71.9,55.9,30.00,West,267,3.0,5.0,57,0.00,,---,0.00,VWS V14.00,2013-03-16 20:09:00,
2013-03-16 10:14:00,72.5,56.4,30.00,West,269,7.0,7.0,57,0.00,,---,0.00,VWS V14.00,2013-03-16 20:14:00,
2013-03-16 10:19:00,73.1,56.0,30.00,WNW,292,6.0,7.0,55,0.00,,---,0.00,VWS V14.00,2013-03-16 20:19:00,
2013-03-16 10:24:00,73.1,56.5,29.99,NW,311,4.0,10.0,56,0.00,,---,0.00,VWS V14.00,2013-03-16 20:24:00,
2013-03-16 10:29:00,73.3,57.2,29.99,WNW,292,0.0,10.0,57,0.00,,---,0.00,VWS V14.00,2013-03-16 20:29:00,
2013-03-16 10:34:00,73.3,56.7,29.99,NW,325,2.0,7.0,56,0.00,,---,0.00,VWS V14.00,2013-03-16 20:34:00,
2013-03-16 10:39:00,73.2,57.1,29.99,NNW,341,4.0,7.0,57,0.00,,---,0.00,VWS V14.00,2013-03-16 20:39:00,
2013-03-16 10:44:00,73.5,56.9,29.99,NW,308,1.0,7.0,56,0.00,,---,0.00,VWS V14.00,2013-03-16 20:44:00,
2013-03-16 10:49:00,73.4,56.8,29.99,WNW,302,8.0,8.0,56,0.00,,---,0.00,VWS V14.00,2013-03-16 20:49:00,
2013-03-16 10:54:00,73.4,56.8,29.98,NW,326,2.0,9.0,56,0.00,,---,0.00,VWS V14.00,2013-03-16 20:54:00,
2013-03-16 10:59:00,73.5,56.9,29.98,NNW,343,6.0,11.0,56,0.00,,---,0.00,VWS V14.00,2013-03-16 20:59:00,
2013-03-16 11:04:00,73.9,57.7,29.98,NNW,347,4.0,9.0,57,0.00,,---,0.00,VWS V14.00,2013-03-16 21:04:00,
2013-03-16 11:09:00,74.0,57.3,29.98,NW,323,6.0,9.0,56,0.00,,---,0.00,VWS V14.00,2013-03-16 21:09:00,
2013-03-16 11:14:00,74.6,57.4,29.98,North,350,11.0,12.0,55,0.00,,---,0.00,VWS V14.00,2013-03-16 21:14:00,
2013-03-16 11:19:00,74.5,57.8,29.98,NW,312,4.0,12.0,56,0.00,,---,0.00,VWS V14.00,2013-03-16 21:19:00,
2013-03-16 11:24:00,75.0,57.8,29.98,North,350,4.0,12.0,55,0.00,,---,0.00,VWS V14.00,2013-03-16 21:24:00,
2013-03-16 11:29:00,75.4,58.1,29.98,NW,319,6.0,12.0,55,0.00,,---,0.00,VWS V14.00,2013-03-16 21:29:00,
2013-03-16 11:34:00,75.2,58.4,29.98,NNW,341,7.0,9.0,56,0.00,,---,0.00,VWS V14.00,2013-03-16 21:34:00,
2013-03-16 11:39:00,75.1,58.3,29.97,NNW,334,6.0,15.0,56,0.00,,---,0.00,VWS V14.00,2013-03-16 21:39:00,
2013-03-16 11:44:00,74.5,57.8,29.97,NNW,327,6.0,18.0,56,0.00,,---,0.00,VWS V14.00,2013-03-16 21:44:00,
2013-03-16 11:49:00,74.7,59.0,29.97,NNE,21,4.0,18.0,58,0.00,,---,0.00,VWS V14.00,2013-03-16 21:49:00,
2013-03-16 11:54:00,74.7,58.0,29.97,NNW,336,7.0,18.0,56,0.00,,---,0.00,VWS V14.00,2013-03-16 21:54:00,
2013-03-16 11:59:00,74.4,58.2,29.97,NW,319,4.0,18.0,57,0.00,,---,0.00,VWS V14.00,2013-03-16 21:59:00,
2013-03-16 12:04:00,74.7,57.5,29.97,NW,316,7.0,14.0,55,0.00,,---,0.00,VWS V14.00,2013-03-16 22:04:00,
2013-03-16 12:09:00,74.6,56.9,29.96,NW,324,2.0,14.0,54,0.00,,---,0.00,VWS V14.00,2013-03-16 22:09:00,
2013-03-16 12:14:00,74.8,57.1,29.97,NNW,344,7.0,14.0,54,0.00,,---,0.00,VWS V14.00,2013-03-16 22:14:00,
2013-03-16 12:19:00,74.3,58.1,29.96,North,349,7.0,16.0,57,0.00,,---,0.00,VWS V14.00,2013-03-16 22:19:00,
2013-03-16 12:24:00,74.0,58.3,29.96,NW,307,2.0,16.0,58,0.00,,---,0.00,VWS V14.00,2013-03-16 22:24:00,
2013-03-16 12:29:00,73.8,58.6,29.96,NNW,336,8.0,16.0,59,0.00,,---,0.00,VWS V14.00,2013-03-16 22:29:00,
2013-03-16 12:34:00,73.9,58.2,29.96,NNW,348,7.0,15.0,58,0.00,,---,0.00,VWS V14.00,2013-03-16 22:34:00,
2013-03-16 12:39:00,74.1,58.4,29.95,NNW,340,11.0,15.0,58,0.00,,---,0.00,VWS V14.00,2013-03-16 22:39:00,
2013-03-16 12:44:00,74.6,58.9,29.95,North,360,4.0,15.0,58,0.00,,---,0.00,VWS V14.00,2013-03-16 22:44:00,
2013-03-16 12:49:00,74.6,59.3,29.94,NNW,339,12.0,15.0,59,0.00,,---,0.00,VWS V14.00,2013-03-16 22:49:00,
2013-03-16 12:54:00,74.4,60.1,29.94,North,355,4.0,17.0,61,0.00,,---,0.00,VWS V14.00,2013-03-16 22:54:00,
2013-03-16 12:59:00,74.3,58.6,29.94,NW,319,8.0,17.0,58,0.00,,---,0.00,VWS V14.00,2013-03-16 22:59:00,
2013-03-16 13:04:00,74.7,59.4,29.94,NE,53,3.0,13.0,59,0.00,,---,0.00,VWS V14.00,2013-03-16 23:04:00,
2013-03-16 13:09:00,74.6,59.3,29.94,North,360,12.0,14.0,59,0.00,,---,0.00,VWS V14.00,2013-03-16 23:09:00,
2013-03-16 13:14:00,74.6,58.9,29.94,NE,34,7.0,14.0,58,0.00,,---,0.00,VWS V14.00,2013-03-16 23:14:00,
2013-03-16 13:19:00,75.3,60.5,29.94,North,9,2.0,14.0,60,0.00,,---,0.00,VWS V14.00,2013-03-16 23:19:00,
2013-03-16 13:24:00,75.2,60.4,29.94,NNE,17,6.0,15.0,60,0.00,,---,0.00,VWS V14.00,2013-03-16 23:24:00,
2013-03-16 13:29:00,75.3,60.0,29.95,NW,324,7.0,16.0,59,0.00,,---,0.00,VWS V14.00,2013-03-16 23:29:00,
2013-03-16 13:34:00,75.2,60.8,29.94,NNW,335,2.0,14.0,61,0.00,,---,0.00,VWS V14.00,2013-03-16 23:34:00,
2013-03-16 13:39:00,75.3,60.0,29.94,NNW,348,4.0,14.0,59,0.00,,---,0.00,VWS V14.00,2013-03-16 23:39:00,
2013-03-16 13:44:00,75.0,59.2,29.94,North,355,11.0,18.0,58,0.00,,---,0.00,VWS V14.00,2013-03-16 23:44:00,
2013-03-16 13:49:00,75.1,59.3,29.94,ENE,61,10.0,18.0,58,0.00,,---,0.00,VWS V14.00,2013-03-16 23:49:00,
2013-03-16 13:54:00,74.7,58.5,29.94,North,10,5.0,18.0,57,0.00,,---,0.00,VWS V14.00,2013-03-16 23:54:00,
2013-03-16 13:59:00,74.1,58.9,29.94,NNW,334,1.0,18.0,59,0.00,,---,0.00,VWS V14.00,2013-03-16 23:59:00,
2013-03-16 14:04:00,73.8,59.5,29.94,NNW,337,5.0,13.0,61,0.00,,---,0.00,VWS V14.00,2013-03-17 00:04:00,
2013-03-16 14:09:00,73.6,59.3,29.93,North,360,5.0,14.0,61,0.00,,---,0.00,VWS V14.00,2013-03-17 00:09:00,
2013-03-16 14:14:00,73.3,59.0,29.93,NNW,329,12.0,17.0,61,0.00,,---,0.00,VWS V14.00,2013-03-17 00:14:00,
2013-03-16 14:19:00,73.3,59.0,29.93,NNW,346,7.0,17.0,61,0.00,,---,0.00,VWS V14.00,2013-03-17 00:19:00,
2013-03-16 14:24:00,73.0,58.8,29.93,North,355,5.0,17.0,61,0.00,,---,0.00,VWS V14.00,2013-03-17 00:24:00,
2013-03-16 14:29:00,72.8,58.6,29.93,North,360,7.0,17.0,61,0.00,,---,0.00,VWS V14.00,2013-03-17 00:29:00,
2013-03-16 14:34:00,73.1,58.9,29.93,NNW,331,2.0,12.0,61,0.00,,---,0.00,VWS V14.00,2013-03-17 00:34:00,
2013-03-16 14:39:00,73.9,59.2,29.93,North,360,7.0,15.0,60,0.00,,---,0.00,VWS V14.00,2013-03-17 00:39:00,
2013-03-16 14:44:00,74.7,60.4,29.92,North,360,3.0,15.0,61,0.00,,---,0.00,VWS V14.00,2013-03-17 00:44:00,
2013-03-16 14:49:00,74.9,58.2,29.92,NNW,329,7.0,17.0,56,0.00,,---,0.00,VWS V14.00,2013-03-17 00:49:00,
2013-03-16 14:54:00,74.9,58.7,29.92,NNW,344,1.0,17.0,57,0.00,,---,0.00,VWS V14.00,2013-03-17 00:54:00,
2013-03-16 14:59:00,74.9,58.2,29.92,NNE,18,6.0,17.0,56,0.00,,---,0.00,VWS V14.00,2013-03-17 00:59:00,
2013-03-16 15:04:00,74.8,57.1,29.92,North,350,14.0,14.0,54,0.00,,---,0.00,VWS V14.00,2013-03-17 01:04:00,
2013-03-16 15:09:00,74.7,57.5,29.92,NNW,343,4.0,14.0,55,0.00,,---,0.00,VWS V14.00,2013-03-17 01:09:00,
2013-03-16 15:14:00,75.1,57.8,29.92,North,351,9.0,15.0,55,0.00,,---,0.00,VWS V14.00,2013-03-17 01:14:00,
2013-03-16 15:19:00,74.6,56.9,29.92,North,355,4.0,15.0,54,0.00,,---,0.00,VWS V14.00,2013-03-17 01:19:00,
2013-03-16 15:24:00,74.0,56.3,29.92,North,350,2.0,15.0,54,0.00,,---,0.00,VWS V14.00,2013-03-17 01:24:00,
2013-03-16 15:29:00,74.0,56.8,29.92,NNE,14,5.0,15.0,55,0.00,,---,0.00,VWS V14.00,2013-03-17 01:29:00,
2013-03-16 15:34:00,73.8,57.6,29.92,North,5,5.0,11.0,57,0.00,,---,0.00,VWS V14.00,2013-03-17 01:34:00,
2013-03-16 15:39:00,73.9,58.2,29.92,NNE,32,8.0,14.0,58,0.00,,---,0.00,VWS V14.00,2013-03-17 01:39:00,
2013-03-16 15:44:00,73.7,57.0,29.92,NNE,28,7.0,17.0,56,0.00,,---,0.00,VWS V14.00,2013-03-17 01:44:00,
2013-03-16 15:49:00,73.5,56.9,29.92,North,360,7.0,17.0,56,0.00,,---,0.00,VWS V14.00,2013-03-17 01:49:00,
2013-03-16 15:54:00,73.8,57.6,29.92,North,355,9.0,17.0,57,0.00,,---,0.00,VWS V14.00,2013-03-17 01:54:00,
2013-03-16 15:59:00,74.0,57.8,29.92,NNW,341,9.0,17.0,57,0.00,,---,0.00,VWS V14.00,2013-03-17 01:59:00,
2013-03-16 16:04:00,74.4,56.7,29.92,North,355,8.0,9.0,54,0.00,,---,0.00,VWS V14.00,2013-03-17 02:04:00,
2013-03-16 16:09:00,74.5,57.8,29.92,North,360,5.0,14.0,56,0.00,,---,0.00,VWS V14.00,2013-03-17 02:09:00,
2013-03-16 16:14:00,74.4,58.7,29.91,NE,44,5.0,16.0,58,0.00,,---,0.00,VWS V14.00,2013-03-17 02:14:00,
2013-03-16 16:19:00,74.1,57.4,29.91,NNW,348,4.0,16.0,56,0.00,,---,0.00,VWS V14.00,2013-03-17 02:19:00,
2013-03-16 16:24:00,73.9,57.2,29.91,North,355,2.0,16.0,56,0.00,,---,0.00,VWS V14.00,2013-03-17 02:24:00,
2013-03-16 16:29:00,73.9,57.7,29.92,NNW,340,9.0,16.0,57,0.00,,---,0.00,VWS V14.00,2013-03-17 02:29:00,
2013-03-16 16:34:00,73.5,57.3,29.92,North,5,10.0,13.0,57,0.00,,---,0.00,VWS V14.00,2013-03-17 02:34:00,
2013-03-16 16:39:00,73.0,56.4,29.92,NW,325,6.0,15.0,56,0.00,,---,0.00,VWS V14.00,2013-03-17 02:39:00,
2013-03-16 16:44:00,72.9,57.3,29.92,NW,315,4.0,15.0,58,0.00,,---,0.00,VWS V14.00,2013-03-17 02:44:00,
2013-03-16 16:49:00,73.1,57.0,29.92,NNW,342,1.0,15.0,57,0.00,,---,0.00,VWS V14.00,2013-03-17 02:49:00,
2013-03-16 16:54:00,73.1,56.5,29.93,North,355,8.0,15.0,56,0.00,,---,0.00,VWS V14.00,2013-03-17 02:54:00,
2013-03-16 16:59:00,72.7,56.1,29.93,NNE,21,6.0,15.0,56,0.00,,---,0.00,VWS V14.00,2013-03-17 02:59:00,
2013-03-16 17:04:00,72.4,56.8,29.93,North,349,5.0,10.0,58,0.00,,---,0.00,VWS V14.00,2013-03-17 03:04:00,
2013-03-16 17:09:00,72.1,57.0,29.93,NNW,335,7.0,14.0,59,0.00,,---,0.00,VWS V14.00,2013-03-17 03:09:00,
2013-03-16 17:14:00,72.0,57.4,29.93,North,355,11.0,14.0,60,0.00,,---,0.00,VWS V14.00,2013-03-17 03:14:00,
2013-03-16 17:19:00,71.8,56.7,29.93,North,355,9.0,17.0,59,0.00,,---,0.00,VWS V14.00,2013-03-17 03:19:00,
2013-03-16 17:24:00,71.7,55.7,29.93,NW,323,2.0,17.0,57,0.00,,---,0.00,VWS V14.00,2013-03-17 03:24:00,
2013-03-16 17:29:00,71.9,56.3,29.93,NNW,344,4.0,17.0,58,0.00,,---,0.00,VWS V14.00,2013-03-17 03:29:00,
2013-03-16 17:34:00,72.2,56.6,29.93,North,9,6.0,13.0,58,0.00,,---,0.00,VWS V14.00,2013-03-17 03:34:00,
2013-03-16 17:39:00,72.3,56.7,29.93,NNW,344,11.0,13.0,58,0.00,,---,0.00,VWS V14.00,2013-03-17 03:39:00,
2013-03-16 17:44:00,72.1,57.5,29.93,NE,49,8.0,13.0,60,0.00,,---,0.00,VWS V14.00,2013-03-17 03:44:00,
2013-03-16 17:49:00,71.8,57.6,29.94,North,5,10.0,13.0,61,0.00,,---,0.00,VWS V14.00,2013-03-17 03:49:00,
2013-03-16 17:54:00,71.4,57.7,29.94,NW,310,4.0,13.0,62,0.00,,---,0.00,VWS V14.00,2013-03-17 03:54:00,
2013-03-16 17:59:00,71.3,57.6,29.94,NNW,342,6.0,13.0,62,0.00,,---,0.00,VWS V14.00,2013-03-17 03:59:00,
2013-03-16 18:00:00,71.3,57.6,29.94,NNW,340,6.0,13.0,62,0.00,,---,0.00,VWS V14.00,2013-03-17 04:00:00,
2013-03-16 18:05:00,71.1,57.4,29.93,NNW,331,6.0,9.0,62,0.00,,---,0.00,VWS V14.00,2013-03-17 04:05:00,
2013-03-16 18:10:00,71.0,57.3,29.94,NNW,346,2.0,9.0,62,0.00,,---,0.00,VWS V14.00,2013-03-17 04:10:00,
2013-03-16 18:15:00,71.0,57.3,29.94,NW,326,5.0,10.0,62,0.00,,---,0.00,VWS V14.00,2013-03-17 04:15:00,
2013-03-16 18:20:00,71.0,57.8,29.95,North,350,2.0,10.0,63,0.00,,---,0.00,VWS V14.00,2013-03-17 04:20:00,
2013-03-16 18:25:00,70.9,57.7,29.95,NNW,342,4.0,10.0,63,0.00,,---,0.00,VWS V14.00,2013-03-17 04:25:00,
2013-03-16 18:30:00,70.8,56.7,29.95,North,360,5.0,10.0,61,0.00,,---,0.00,VWS V14.00,2013-03-17 04:30:00,
2013-03-16 18:35:00,70.6,56.5,29.95,North,350,4.0,7.0,61,0.00,,---,0.00,VWS V14.00,2013-03-17 04:35:00,
2013-03-16 18:40:00,70.5,56.0,29.96,NNW,327,1.0,7.0,60,0.00,,---,0.00,VWS V14.00,2013-03-17 04:40:00,
2013-03-16 18:45:00,70.5,56.4,29.96,NNW,328,2.0,7.0,61,0.00,,---,0.00,VWS V14.00,2013-03-17 04:45:00,
2013-03-16 18:50:00,70.4,56.8,29.96,NNW,329,4.0,7.0,62,0.00,,---,0.00,VWS V14.00,2013-03-17 04:50:00,
2013-03-16 18:55:00,70.3,56.7,29.96,NNW,347,4.0,8.0,62,0.00,,---,0.00,VWS V14.00,2013-03-17 04:55:00,
2013-03-16 19:00:00,70.2,57.5,29.97,North,355,2.0,8.0,64,0.00,,---,0.00,VWS V14.00,2013-03-17 05:00:00,
2013-03-16 19:05:00,70.1,57.8,29.97,North,355,5.0,5.0,65,0.00,,---,0.00,VWS V14.00,2013-03-17 05:05:00,
2013-03-16 19:10:00,70.0,57.7,29.97,North,350,2.0,8.0,65,0.00,,---,0.00,VWS V14.00,2013-03-17 05:10:00,
2013-03-16 19:15:00,70.0,58.1,29.97,North,349,2.0,8.0,66,0.00,,---,0.00,VWS V14.00,2013-03-17 05:15:00,
2013-03-16 19:20:00,69.9,57.6,29.97,NNW,348,1.0,9.0,65,0.00,,---,0.00,VWS V14.00,2013-03-17 05:20:00,
2013-03-16 19:25:00,69.9,57.6,29.97,NNW,348,0.0,9.0,65,0.00,,---,0.00,VWS V14.00,2013-03-17 05:25:00,
2013-03-16 19:30:00,69.9,57.6,29.97,NNW,348,4.0,9.0,65,0.00,,---,0.00,VWS V14.00,2013-03-17 05:30:00,
2013-03-16 19:35:00,69.8,57.5,29.97,NNW,348,0.0,2.0,65,0.00,,---,0.00,VWS V14.00,2013-03-17 05:35:00,
2013-03-16 19:40:00,69.7,57.0,29.98,NNW,348,0.0,6.0,64,0.00,,---,0.00,VWS V14.00,2013-03-17 05:40:00,
2013-03-16 19:45:00,69.7,57.0,29.98,NNW,348,0.0,6.0,64,0.00,,---,0.00,VWS V14.00,2013-03-17 05:45:00,
2013-03-16 19:50:00,69.7,57.0,29.98,NNW,348,2.0,6.0,64,0.00,,---,0.00,VWS V14.00,2013-03-17 05:50:00,
2013-03-16 19:55:00,69.7,57.4,29.98,NNW,348,0.0,6.0,65,0.00,,---,0.00,VWS V14.00,2013-03-17 05:55:00,
2013-03-16 20:00:00,69.7,57.4,29.98,NNW,348,1.0,6.0,65,0.00,,---,0.00,VWS V14.00,2013-03-17 06:00:00,
2013-03-16 20:05:00,69.7,57.4,29.99,NNW,348,0.0,4.0,65,0.00,,---,0.00,VWS V14.00,2013-03-17 06:05:00,
2013-03-16 20:10:00,69.5,57.7,29.99,NNW,348,0.0,4.0,66,0.00,,---,0.00,VWS V14.00,2013-03-17 06:10:00,
2013-03-16 20:15:00,69.3,57.5,29.99,NNW,348,0.0,4.0,66,0.00,,---,0.00,VWS V14.00,2013-03-17 06:15:00,
2013-03-16 20:20:00,69.2,57.8,29.99,NNW,348,1.0,4.0,67,0.00,,---,0.00,VWS V14.00,2013-03-17 06:20:00,
2013-03-16 20:25:00,68.9,57.5,30.00,NNW,348,0.0,4.0,67,0.00,,---,0.00,VWS V14.00,2013-03-17 06:25:00,
2013-03-16 20:30:00,68.7,57.3,30.00,NNW,348,0.0,4.0,67,0.00,,---,0.00,VWS V14.00,2013-03-17 06:30:00,
2013-03-16 20:35:00,68.5,57.5,30.00,NNW,348,0.0,2.0,68,0.00,,---,0.00,VWS V14.00,2013-03-17 06:35:00,
2013-03-16 20:40:00,68.3,57.8,30.00,NNW,348,4.0,4.0,69,0.00,,---,0.00,VWS V14.00,2013-03-17 06:40:00,
2013-03-16 20:45:00,68.1,57.6,30.01,NNW,348,0.0,4.0,69,0.00,,---,0.00,VWS V14.00,2013-03-17 06:45:00,
2013-03-16 20:50:00,67.9,57.4,30.01,NNW,348,0.0,4.0,69,0.00,,---,0.00,VWS V14.00,2013-03-17 06:50:00,
2013-03-16 20:55:00,67.7,57.6,30.01,NNW,348,0.0,4.0,70,0.00,,---,0.00,VWS V14.00,2013-03-17 06:55:00,
2013-03-16 21:00:00,67.5,57.4,30.01,NNW,348,2.0,4.0,70,0.00,,---,0.00,VWS V14.00,2013-03-17 07:00:00,
2013-03-16 21:05:00,67.4,57.7,30.01,NNW,348,1.0,1.0,71,0.00,,---,0.00,VWS V14.00,2013-03-17 07:05:00,
2013-03-16 21:10:00,67.2,57.5,30.01,NNW,348,0.0,1.0,71,0.00,,---,0.00,VWS V14.00,2013-03-17 07:10:00,
2013-03-16 21:15:00,67.1,57.4,30.01,NNW,348,0.0,1.0,71,0.00,,---,0.00,VWS V14.00,2013-03-17 07:15:00,
2013-03-16 21:20:00,67.0,57.3,30.01,NNW,348,0.0,1.0,71,0.00,,---,0.00,VWS V14.00,2013-03-17 07:20:00,
2013-03-16 21:25:00,66.8,57.5,30.01,NNW,348,0.0,1.0,72,0.00,,---,0.00,VWS V14.00,2013-03-17 07:25:00,
2013-03-16 21:30:00,66.6,57.3,30.01,NNW,348,0.0,1.0,72,0.00,,---,0.00,VWS V14.00,2013-03-17 07:30:00,
2013-03-16 21:35:00,66.4,57.1,30.01,NNW,348,0.0,0.0,72,0.00,,---,0.00,VWS V14.00,2013-03-17 07:35:00,
2013-03-16 21:40:00,66.3,57.4,30.01,NNW,348,0.0,0.0,73,0.00,,---,0.00,VWS V14.00,2013-03-17 07:40:00,
2013-03-16 21:45:00,66.2,57.3,30.01,NNW,348,0.0,0.0,73,0.00,,---,0.00,VWS V14.00,2013-03-17 07:45:00,
2013-03-16 21:50:00,66.0,57.1,30.02,NNW,348,0.0,0.0,73,0.00,,---,0.00,VWS V14.00,2013-03-17 07:50:00,
2013-03-16 21:55:00,65.9,57.4,30.01,NNW,348,0.0,0.0,74,0.00,,---,0.00,VWS V14.00,2013-03-17 07:55:00,
2013-03-16 22:00:00,65.8,57.3,30.01,NNW,348,0.0,0.0,74,0.00,,---,0.00,VWS V14.00,2013-03-17 08:00:00,
2013-03-16 22:05:00,65.7,57.2,30.01,NNW,348,0.0,0.0,74,0.00,,---,0.00,VWS V14.00,2013-03-17 08:05:00,
2013-03-16 22:10:00,65.6,57.1,30.01,NNW,348,0.0,0.0,74,0.00,,---,0.00,VWS V14.00,2013-03-17 08:10:00,
2013-03-16 22:15:00,65.4,57.3,30.02,NNW,348,0.0,0.0,75,0.00,,---,0.00,VWS V14.00,2013-03-17 08:15:00,
2013-03-16 22:20:00,65.4,57.3,30.01,NNW,348,0.0,0.0,75,0.00,,---,0.00,VWS V14.00,2013-03-17 08:20:00,
2013-03-16 22:25:00,65.3,57.5,30.01,NNW,348,0.0,0.0,76,0.00,,---,0.00,VWS V14.00,2013-03-17 08:25:00,
2013-03-16 22:30:00,65.3,57.2,30.01,NNW,348,0.0,0.0,75,0.00,,---,0.00,VWS V14.00,2013-03-17 08:30:00,
2013-03-16 22:35:00,65.2,57.1,30.01,NNW,348,0.0,0.0,75,0.00,,---,0.00,VWS V14.00,2013-03-17 08:35:00,
2013-03-16 22:40:00,65.1,57.0,30.02,NNW,348,0.0,0.0,75,0.00,,---,0.00,VWS V14.00,2013-03-17 08:40:00,
2013-03-16 22:45:00,65.1,57.4,30.01,NNW,348,0.0,0.0,76,0.00,,---,0.00,VWS V14.00,2013-03-17 08:45:00,
2013-03-16 22:50:00,65.0,57.3,30.01,NNW,348,0.0,0.0,76,0.00,,---,0.00,VWS V14.00,2013-03-17 08:50:00,
2013-03-16 22:55:00,65.0,57.3,30.01,NNW,348,0.0,0.0,76,0.00,,---,0.00,VWS V14.00,2013-03-17 08:55:00,
2013-03-16 23:00:00,64.9,57.2,30.01,NNW,348,0.0,0.0,76,0.00,,---,0.00,VWS V14.00,2013-03-17 09:00:00,
2013-03-16 23:05:00,64.9,57.2,30.01,NNW,348,0.0,0.0,76,0.00,,---,0.00,VWS V14.00,2013-03-17 09:05:00,
2013-03-16 23:10:00,64.8,57.1,30.01,NNW,348,0.0,0.0,76,0.00,,---,0.00,VWS V14.00,2013-03-17 09:10:00,
2013-03-16 23:15:00,64.7,57.0,30.01,NNW,348,0.0,0.0,76,0.00,,---,0.00,VWS V14.00,2013-03-17 09:15:00,
2013-03-16 23:20:00,64.7,57.0,30.01,NNW,348,0.0,0.0,76,0.00,,---,0.00,VWS V14.00,2013-03-17 09:20:00,
2013-03-16 23:25:00,64.6,56.9,30.01,NNW,348,0.0,0.0,76,0.00,,---,0.00,VWS V14.00,2013-03-17 09:25:00,
2013-03-16 23:30:00,64.5,56.8,30.01,NNW,348,0.0,0.0,76,0.00,,---,0.00,VWS V14.00,2013-03-17 09:30:00,
2013-03-16 23:35:00,64.5,56.8,30.00,NNW,348,0.0,0.0,76,0.00,,---,0.00,VWS V14.00,2013-03-17 09:35:00,
2013-03-16 23:40:00,64.5,57.1,30.00,NNW,348,0.0,0.0,77,0.00,,---,0.00,VWS V14.00,2013-03-17 09:40:00,
2013-03-16 23:45:00,64.4,56.7,30.00,NNW,348,0.0,0.0,76,0.00,,---,0.00,VWS V14.00,2013-03-17 09:45:00,
2013-03-16 23:50:00,64.3,57.0,30.00,NNW,348,0.0,0.0,77,0.00,,---,0.00,VWS V14.00,2013-03-17 09:50:00,
2013-03-16 23:55:00,64.4,57.0,30.00,NNW,348,0.0,0.0,77,0.00,,---,0.00,VWS V14.00,2013-03-17 09:55:00,